Chippewa Falls, WI (54729)

1:00 AM CDT on September 03, 2015 (GMT -0500)
Lake Wissota | | Change Station
CLOSE
Current Station
Personal Weather Station
Location: Chippewa Falls, WI
Elevation: 925 ft
Nearby Weather Stations

Elev 925 ft 44.98 °N, 91.34 °W | Updated 5 seconds ago

Overcast
Overcast
69.1 °F
Feels Like 69.1 °F
N
1.1
Wind Variable Wind from North
Gusts 0.0 mph

Today
High -- | Low -- °F
--% Chance of Precip.
Yesterday
High -- | Low -- °F
Precip. -- in
6:29 AM 7:39 PM
Waning Gibbous, 73% visible
Pressure 29.91 in
Visibility 9.0 miles
Clouds Mostly Cloudy 2100 ft
Overcast 3300 ft
Dew Point 69 °F
Humidity 99%
Rainfall 0.00 in
Snow Depth Not available.
UV 0 out of 12
Pollen 10.20 out of 12
Air Quality Not available.
Flu Activity Not available.
METAR KEAU 030556Z AUTO 03003KT 9SM BKN021 OVC033 21/19 A2992 RMK AO2 SLP128 T02060194 10217 20200 402330189 50000
Pressure 29.91 in
Visibility 9.0 miles
Clouds Mostly Cloudy 2100 ft
Overcast 3300 ft
Dew Point 69 °F
Humidity 99%
Rainfall 0.00 in
Snow Depth Not available.
UV 0 out of 12
Pollen 10.20 out of 12
Air Quality Not available.
Flu Activity Not available.
METAR KEAU 030556Z AUTO 03003KT 9SM BKN021 OVC033 21/19 A2992 RMK AO2 SLP128 T02060194 10217 20200 402330189 50000

10-Day Weather Forecast

×

Almanac

Astronomy

Sep. 03, 2015 Rise Set
Actual Time
Civil Twilight
Nautical Twilight
Astronomical Twilight
Moon
Length of Visible Light
Length of Day
Tomorrow will be .
, % of the Moon is Illuminated

Today's Extremes

State Highs State Lows

Community

WunderPhotos

Upload Photos

1,851,914 photos uploaded!

WunderBlogs® & News

Nearby

Air Quality

  Air Quality AQ Index Pollutant
Not available.

Snow Depth

Station Depth Elevation

Earthquake Activity

City Distance Mag. Time & Date
Minimum magnitude displayed is 2.5.

Coastal Water Temperatures

Place Temperature

Stations

Nearby Weather Stations

Station Location Temp. Windchill Dew Point Humidity Wind Precip. Elev Updated Type